Zurück zum Katalog

FENGYUN 1C DEB

AktivSSO
NORAD 30243·DEBRIS·🇨🇳 China

Gestartet May 10, 1999 von Taiyuan Satellite Launch Center

Loading…

Nächste Überflüge (nächste 24 Stunden)

TLE

AktuellSource: Space-Track

Epoche: Sep 14, 2026, 07:14 UTC

1 30243U 99025XC  26257.30200753  .00000370  00000-0  21976-3 0  9997
2 30243  98.6892 265.7823 0013145  57.5863 316.6292 14.13360083 11647

Verfolge FENGYUN 1C DEB in Echtzeit mit AllMySat

Download on the App Store